Regional Weather Roundup
Issued by NWS

Home | Current Version | Previous Version | Text Only | Print | Product List | Glossary On
Versions: 1 2 3 4 5 6 7 8 9 10 11 12 13 14 15 16 17 18 19 20 21 22 23 24 25 26 27 28 29 30 31 32 33 34 35 36 37 38 39 40 41 42 43 44 45 46 47 48 49 50
000
ASUS43 KLMK 022310
RWRKY
KENTUCKY REGIONAL WEATHER ROUNDUP
NATIONAL WEATHER SERVICE LOUISVILLE KY
700 PM EDT TUE JUN 02 2015

NOTE "FAIR" INDICATES FEW OR NO CLOUDS BELOW 12,000 FEET
WITH NO SIGNIFICANT WEATHER AND/OR OBSTRUCTIONS TO VISIBILITY.

KYZ001>023-026-027-061>063-070>075-030000-
WESTERN AND SOUTH CENTRAL KENTUCKY

CITY           SKY/WX    TMP DP  RH WIND       PRES   REMARKS
PADUCAH        CLOUDY    66  58  75 N3        30.04F
HENDERSON      CLOUDY    64  55  72 N3        30.05F
OWENSBORO      CLOUDY    66  57  72 NE7       30.06S
HOPKINSVILLE   CLOUDY    65  59  81 NE6       30.03F
BOWLING GREEN  CLOUDY    65  58  78 N5        30.05R
GLASGOW        CLOUDY    64  56  75 N5        30.04S
$$

KYZ024-025-028>034-038-045-046-053-030000-
NORTH CENTRAL KENTUCKY

CITY           SKY/WX    TMP DP  RH WIND       PRES   REMARKS
LOUISVILLE/SDF CLOUDY    65  53  65 E6        30.07R
LOUISVILLE/LOU CLOUDY    64  53  67 E5        30.07S
FORT KNOX      CLOUDY    64  56  75 NE5       30.04S
$$

KYZ035>037-039>044-047>052-055>060-089>105-030000-
NORTHEAST KENTUCKY

CITY           SKY/WX    TMP DP  RH WIND       PRES   REMARKS
LEXINGTON      CLOUDY    59  53  80 NE9       30.07F
COVINGTON      CLOUDY    61  52  72 N7        30.08F
FRANKFORT      CLOUDY    60  52  74 E5        30.07R
$$

KYZ054-064>069-076>088-106>120-030000-
SOUTHEAST KENTUCKY

CITY           SKY/WX    TMP DP  RH WIND       PRES   REMARKS
JACKSON        CLOUDY    60  56  86 CALM      30.05F
LONDON         CLOUDY    63  54  72 NE6       30.05S
SOMERSET       CLOUDY    61  55  82 NE8       30.05S
MIDDLESBORO    CLOUDY    69  61  77 NE7       30.01F
MONTICELLO     CLOUDY    65  59  81 NE9       30.06S
$$



USA.gov is the U.S. government's official web portal to all federal, state and local government web resources and services.